Tracking 28766 objects as of 14-Apr-2024
HD Live streaming from Space Station
objects crossing your sky now

OBJECT X

Track OBJECT X now!
10-day predictions


NORAD ID: 47953
Int'l Code: 2021-022X
Perigee: 508.6 km
Apogee: 532.1 km
Inclination: 97.5 °
Period: 94.9 minutes
Semi major axis: 6891 km
RCS: Unknown
Launch date: March 22, 2021
Source: (TBD)
Launch site: TYURATAM MISSILE AND SPACE COMPLEX (TTMTR)

Note: This is a ROCKET BODY
Your satellite tracking list
Your tracking list is empty




NASA's NSSDC Master Catalog

Two Line Element Set (TLE):
1 47953U 21022X   24104.85432047  .00012860  00000-0  64089-3 0  9996
2 47953  97.4640   1.1603 0017066  20.4019 339.7893 15.17560577168378
Source of the keplerian elements: AFSPC